QPF
0.00 0.00 0.00 0.00 0.00 0.00 0.00 0.00 0.00 0.00 0.00 0.00 0.00 0.00 0.00 0.00 0.00 0.00 0.00 0.00 0.00 0.00 0.00 0.00 0.00 0.00 0.00 0.00 0.00 0.00 0.00 0.00 0.00 0.00 0.00 0.00 0.00 0.00 0.00 0.00 0.00 0.00 0.00 0.00 0.00 0.00 0.00 0.00 0.00 0.00 0.00 0.00 0.00 0.00 0.00 0.00 0.00 0.00 0.00 0.00 0.00 0.00 0.01 0.00 0.00 0.01 0.00 0.01 0.00 0.01 0.01 0.01 0.03 0.13
0.00 0.00 0.00 0.00 0.00 0.00 0.00 0.00 0.00 0.00 0.00 0.00 0.00 0.00 0.00 0.00 0.00 0.00 0.00 0.00 0.00 0.00 0.00 0.00 0.00 0.00 0.00 0.00 0.00 0.00 0.00 0.00 0.00 0.00 0.00 0.00 0.00 0.00 0.00 0.00 0.00 0.00 0.00 0.00 0.00 0.00 0.00 0.00 0.00 0.00 0.00 0.00 0.00 0.00 0.00 0.00 0.00 0.00 0.00 0.00 0.00 0.00 0.00 0.00 0.00 0.01 0.01 0.00 0.01 0.01 0.02 0.02 0.04 0.08
0.00 0.00 0.00 0.00 0.00 0.00 0.00 0.00 0.00 0.00 0.00 0.00 0.00 0.00 0.00 0.00 0.00 0.00 0.00 0.00 0.00 0.00 0.00 0.00 0.00 0.00 0.00 0.00 0.00 0.00 0.00 0.00 0.00 0.00 0.00 0.00 0.00 0.00 0.00 0.00 0.00 0.00 0.00 0.00 0.00 0.00 0.00 0.00 0.00 0.00 0.00 0.00 0.00 0.00 0.00 0.00 0.00 0.00 0.00 0.00 0.00 0.00 0.00 0.00 0.00 0.00 0.00 0.00 0.00 0.00 0.02 0.02 0.03 0.07
0.00 0.00 0.00 0.00 0.00 0.00 0.00 0.00 0.00 0.00 0.00 0.00 0.00 0.00 0.00 0.00 0.00 0.00 0.00 0.00 0.00 0.00 0.00 0.00 0.00 0.00 0.00 0.00 0.00 0.00 0.00 0.00 0.00 0.00 0.00 0.00 0.00 0.00 0.00 0.00 0.00 0.00 0.00 0.00 0.00 0.00 0.00 0.00 0.00 0.00 0.00 0.00 0.00 0.00 0.00 0.00 0.00 0.00 0.00 0.00 0.00 0.00 0.00 0.00 0.00 0.00 0.00 0.00 0.00 0.00 0.00 0.01 0.02 0.02
0.00 0.00 0.00 0.00 0.00 0.00 0.00 0.00 0.00 0.00 0.00 0.00 0.00 0.00 0.00 0.00 0.00 0.00 0.00 0.00 0.00 0.00 0.00 0.00 0.00 0.00 0.00 0.00 0.00 0.00 0.00 0.00 0.00 0.00 0.00 0.00 0.00 0.00 0.00 0.00 0.00 0.00 0.00 0.00 0.00 0.00 0.00 0.00 0.00 0.00 0.00 0.00 0.00 0.00 0.00 0.00 0.00 0.00 0.00 0.00 0.00 0.00 0.00 0.00 0.00 0.00 0.00 0.00 0.00 0.00 0.00 0.00 0.00 0.01
0.00 0.00 0.00 0.00 0.00 0.00 0.00 0.00 0.00 0.00 0.00 0.00 0.00 0.00 0.00 0.00 0.00 0.00 0.00 0.00 0.00 0.00 0.00 0.00 0.00 0.00 0.00 0.00 0.00 0.00 0.00 0.00 0.00 0.00 0.00 0.00 0.00 0.00 0.00 0.00 0.00 0.00 0.00 0.00 0.00 0.00 0.00 0.00 0.00 0.00 0.00 0.00 0.00 0.00 0.00 0.00 0.00 0.00 0.00 0.00 0.00 0.00 0.00 0.00 0.00 0.00 0.00 0.00 0.00 0.00 0.00 0.00 0.00 0.00
0.00 0.00 0.00 0.00 0.00 0.00 0.00 0.00 0.00 0.00 0.00 0.00 0.00 0.00 0.00 0.00 0.00 0.00 0.00 0.00 0.00 0.00 0.00 0.00 0.00 0.00 0.00 0.00 0.00 0.00 0.00 0.00 0.00 0.00 0.00 0.00 0.00 0.00 0.00 0.00 0.00 0.00 0.00 0.00 0.00 0.00 0.00 0.00 0.00 0.00 0.00 0.00 0.00 0.00 0.00 0.00 0.00 0.00 0.00 0.00 0.00 0.00 0.00 0.00 0.00 0.00 0.00 0.00 0.00 0.00 0.00 0.00 0.00 0.00
0.00 0.00 0.00 0.00 0.00 0.00 0.00 0.00 0.00 0.00 0.00 0.00 0.00 0.00 0.00 0.00 0.00 0.00 0.00 0.00 0.00 0.00 0.00 0.00 0.00 0.00 0.00 0.00 0.00 0.00 0.00 0.00 0.00 0.00 0.00 0.00 0.00 0.00 0.00 0.00 0.00 0.00 0.00 0.00 0.00 0.00 0.00 0.00 0.00 0.00 0.00 0.00 0.00 0.00 0.00 0.00 0.00 0.00 0.00 0.00 0.00 0.00 0.00 0.00 0.00 0.00 0.00 0.00 0.00 0.00 0.00 0.00 0.00 0.00
0.00 0.00 0.00 0.00 0.00 0.00 0.00 0.00 0.00 0.00 0.00 0.00 0.00 0.00 0.00 0.00 0.00 0.00 0.00 0.00 0.00 0.00 0.00 0.00 0.00 0.00 0.00 0.00 0.00 0.00 0.00 0.00 0.00 0.00 0.00 0.00 0.00 0.00 0.00 0.00 0.00 0.00 0.00 0.00 0.00 0.00 0.00 0.00 0.00 0.00 0.00 0.00 0.00 0.00 0.00 0.00 0.00 0.00 0.00 0.00 0.00 0.00 0.00 0.00 0.00 0.00 0.00 0.00 0.00 0.00 0.00 0.00 0.00 0.00
0.00 0.00 0.00 0.00 0.00 0.00 0.00 0.00 0.00 0.00 0.00 0.00 0.00 0.00 0.00 0.00 0.00 0.00 0.00 0.00 0.00 0.00 0.00 0.00 0.00 0.00 0.00 0.00 0.00 0.00 0.00 0.00 0.00 0.00 0.00 0.00 0.00 0.00 0.00 0.00 0.00 0.00 0.00 0.00 0.00 0.00 0.00 0.00 0.00 0.00 0.00 0.00 0.00 0.00 0.00 0.00 0.00 0.00 0.00 0.00 0.00 0.00 0.00 0.00 0.00 0.00 0.00 0.00 0.00 0.00 0.00 0.00 0.00 0.00
0.00 0.00 0.00 0.00 0.00 0.00 0.00 0.00 0.00 0.00 0.00 0.00 0.00 0.00 0.00 0.00 0.00 0.00 0.00 0.00 0.00 0.00 0.00 0.00 0.00 0.00 0.00 0.00 0.00 0.00 0.00 0.00 0.00 0.00 0.00 0.00 0.00 0.00 0.00 0.00 0.00 0.00 0.00 0.00 0.00 0.00 0.00 0.00 0.00 0.00 0.00 0.00 0.00 0.00 0.00 0.00 0.00 0.00 0.00 0.00 0.00 0.00 0.00 0.00 0.00 0.00 0.00 0.00 0.00 0.00 0.00 0.00 0.00 0.00
0.00 0.00 0.00 0.00 0.00 0.00 0.00 0.00 0.00 0.00 0.00 0.00 0.00 0.00 0.00 0.00 0.00 0.00 0.00 0.00 0.00 0.00 0.00 0.00 0.00 0.00 0.00 0.00 0.00 0.00 0.00 0.00 0.00 0.00 0.00 0.00 0.00 0.00 0.00 0.00 0.00 0.00 0.00 0.00 0.00 0.00 0.00 0.00 0.00 0.00 0.00 0.00 0.00 0.00 0.00 0.00 0.00 0.00 0.00 0.00 0.00 0.00 0.00 0.00 0.00 0.00 0.00 0.00 0.00 0.00 0.00 0.00 0.00 0.00
0.00 0.00 0.00 0.00 0.00 0.00 0.00 0.00 0.00 0.00 0.00 0.00 0.00 0.00 0.00 0.00 0.00 0.00 0.00 0.00 0.00 0.00 0.00 0.00 0.00 0.00 0.00 0.00 0.00 0.00 0.00 0.00 0.00 0.00 0.00 0.00 0.00 0.00 0.00 0.00 0.00 0.00 0.00 0.00 0.00 0.00 0.00 0.00 0.00 0.00 0.00 0.00 0.00 0.00 0.00 0.00 0.00 0.00 0.00 0.00 0.00 0.00 0.00 0.00 0.00 0.00 0.00 0.00 0.00 0.00 0.00 0.00 0.00 0.00
0.00 0.00 0.00 0.00 0.00 0.00 0.00 0.00 0.00 0.00 0.00 0.00 0.00 0.00 0.00 0.00 0.00 0.00 0.00 0.00 0.00 0.00 0.00 0.00 0.00 0.00 0.00 0.00 0.00 0.00 0.00 0.00 0.00 0.00 0.00 0.00 0.00 0.00 0.00 0.00 0.00 0.00 0.00 0.00 0.00 0.00 0.00 0.00 0.00 0.00 0.00 0.00 0.00 0.00 0.00 0.00 0.00 0.00 0.00 0.00 0.00 0.00 0.00 0.00 0.00 0.00 0.00 0.00 0.00 0.00 0.00 0.00 0.00 0.00
0.00 0.00 0.00 0.00 0.00 0.00 0.00 0.00 0.00 0.00 0.00 0.00 0.00 0.00 0.00 0.00 0.00 0.00 0.00 0.00 0.00 0.00 0.00 0.00 0.00 0.00 0.00 0.00 0.00 0.00 0.00 0.00 0.00 0.00 0.00 0.00 0.00 0.00 0.00 0.00 0.00 0.00 0.00 0.00 0.00 0.00 0.00 0.00 0.00 0.00 0.00 0.00 0.00 0.00 0.00 0.00 0.00 0.00 0.00 0.00 0.00 0.00 0.00 0.00 0.00 0.00 0.00 0.00 0.00 0.00 0.00 0.00 0.00 0.00
0.00 0.00 0.00 0.00 0.00 0.00 0.00 0.00 0.00 0.00 0.00 0.00 0.00 0.00 0.00 0.00 0.00 0.00 0.00 0.00 0.00 0.00 0.00 0.00 0.00 0.00 0.00 0.00 0.00 0.00 0.00 0.00 0.00 0.00 0.00 0.00 0.00 0.00 0.00 0.00 0.00 0.00 0.00 0.00 0.00 0.00 0.00 0.00 0.00 0.00 0.00 0.00 0.00 0.00 0.00 0.00 0.00 0.00 0.00 0.00 0.00 0.00 0.00 0.00 0.00 0.00 0.00 0.00 0.00 0.00 0.00 0.00 0.00 0.00
0.00 0.00 0.00 0.00 0.00 0.00 0.00 0.00 0.00 0.00 0.00 0.00 0.00 0.00 0.00 0.00 0.00 0.00 0.00 0.00 0.00 0.00 0.00 0.00 0.00 0.00 0.00 0.00 0.00 0.00 0.00 0.00 0.00 0.00 0.00 0.00 0.00 0.00 0.00 0.00 0.00 0.00 0.00 0.00 0.00 0.00 0.00 0.00 0.00 0.00 0.00 0.00 0.00 0.00 0.00 0.00 0.00 0.00 0.00 0.00 0.00 0.00 0.00 0.00 0.00 0.00 0.00 0.00 0.00 0.00 0.00 0.00 0.00 0.00
0.00 0.00 0.00 0.00 0.00 0.00 0.00 0.00 0.00 0.00 0.00 0.00 0.00 0.00 0.00 0.00 0.00 0.00 0.00 0.00 0.00 0.00 0.00 0.00 0.00 0.00 0.00 0.00 0.00 0.00 0.00 0.00 0.00 0.00 0.00 0.00 0.00 0.00 0.00 0.00 0.00 0.00 0.00 0.00 0.00 0.00 0.00 0.00 0.00 0.00 0.00 0.00 0.00 0.00 0.00 0.00 0.00 0.00 0.00 0.00 0.00 0.00 0.00 0.00 0.00 0.00 0.00 0.00 0.00 0.00 0.00 0.00 0.00 0.00
0.00 0.00 0.00 0.00 0.00 0.00 0.00 0.00 0.00 0.00 0.00 0.00 0.00 0.00 0.00 0.00 0.00 0.00 0.00 0.00 0.00 0.00 0.00 0.00 0.00 0.00 0.00 0.00 0.00 0.00 0.00 0.00 0.00 0.00 0.00 0.00 0.00 0.00 0.00 0.00 0.00 0.00 0.00 0.00 0.00 0.00 0.00 0.00 0.00 0.00 0.00 0.00 0.00 0.00 0.00 0.00 0.00 0.00 0.00 0.00 0.00 0.00 0.00 0.00 0.00 0.00 0.00 0.00 0.00 0.00 0.00 0.00 0.00 0.00
0.00 0.00 0.00 0.00 0.00 0.00 0.00 0.00 0.00 0.00 0.00 0.00 0.00 0.00 0.00 0.00 0.00 0.00 0.00 0.00 0.00 0.00 0.00 0.00 0.00 0.00 0.00 0.00 0.00 0.00 0.00 0.00 0.00 0.00 0.00 0.00 0.00 0.00 0.00 0.00 0.00 0.00 0.00 0.00 0.00 0.00 0.00 0.00 0.00 0.00 0.00 0.00 0.00 0.00 0.00 0.00 0.00 0.00 0.00 0.00 0.00 0.00 0.00 0.00 0.00 0.00 0.00 0.00 0.00 0.00 0.00 0.00 0.00 0.00
0.00 0.00 0.00 0.00 0.00 0.00 0.00 0.00 0.00 0.00 0.00 0.00 0.00 0.00 0.00 0.00 0.00 0.00 0.00 0.00 0.00 0.00 0.00 0.00 0.00 0.00 0.00 0.00 0.00 0.00 0.00 0.00 0.00 0.00 0.00 0.00 0.00 0.00 0.00 0.00 0.00 0.00 0.00 0.00 0.00 0.00 0.00 0.00 0.00 0.00 0.00 0.00 0.00 0.00 0.00 0.00 0.00 0.00 0.00 0.00 0.00 0.00 0.00 0.00 0.00 0.00 0.00 0.00 0.00 0.00 0.00 0.00 0.00 0.00
0.00 0.00 0.00 0.00 0.00 0.00 0.00 0.00 0.00 0.00 0.00 0.00 0.00 0.00 0.00 0.00 0.00 0.00 0.00 0.00 0.00 0.00 0.00 0.00 0.00 0.00 0.00 0.00 0.00 0.00 0.00 0.00 0.00 0.00 0.00 0.00 0.00 0.00 0.00 0.00 0.00 0.00 0.00 0.00 0.00 0.00 0.00 0.00 0.00 0.00 0.00 0.00 0.00 0.00 0.00 0.00 0.00 0.00 0.00 0.00 0.00 0.00 0.00 0.00 0.00 0.00 0.00 0.00 0.00 0.00 0.00 0.00 0.00 0.00
0.00 0.00 0.00 0.00 0.00 0.00 0.00 0.00 0.00 0.00 0.00 0.00 0.00 0.00 0.00 0.00 0.00 0.00 0.00 0.00 0.00 0.00 0.00 0.00 0.00 0.00 0.00 0.00 0.00 0.00 0.00 0.00 0.00 0.00 0.00 0.00 0.00 0.00 0.00 0.00 0.01 0.00 0.00 0.00 0.00 0.00 0.00 0.00 0.00 0.00 0.00 0.00 0.00 0.00 0.00 0.00 0.00 0.00 0.00 0.00 0.00 0.00 0.00 0.00 0.00 0.00 0.00 0.00 0.00 0.00 0.00 0.00 0.00 0.00
0.00 0.00 0.00 0.00 0.00 0.00 0.00 0.00 0.00 0.00 0.00 0.00 0.00 0.00 0.00 0.00 0.00 0.00 0.00 0.00 0.00 0.00 0.00 0.00 0.00 0.00 0.00 0.00 0.00 0.00 0.00 0.00 0.00 0.00 0.00 0.00 0.00 0.00 0.00 0.00 0.01 0.00 0.00 0.00 0.00 0.00 0.00 0.00 0.00 0.00 0.00 0.00 0.00 0.00 0.00 0.00 0.00 0.00 0.00 0.00 0.00 0.00 0.00 0.00 0.00 0.00 0.00 0.00 0.00 0.00 0.00 0.00 0.00 0.00
0.00 0.00 0.00 0.00 0.00 0.00 0.00 0.00 0.00 0.00 0.00 0.00 0.00 0.00 0.00 0.00 0.00 0.00 0.00 0.00 0.00 0.00 0.00 0.00 0.00 0.00 0.00 0.00 0.00 0.00 0.00 0.00 0.00 0.00 0.00 0.00 0.00 0.00 0.00 0.00 0.00 0.00 0.00 0.00 0.00 0.00 0.00 0.00 0.00 0.00 0.00 0.00 0.00 0.00 0.00 0.00 0.00 0.00 0.00 0.00 0.00 0.00 0.00 0.00 0.00 0.00 0.00 0.00 0.00 0.00 0.00 0.00 0.00 0.00
0.00 0.00 0.00 0.00 0.00 0.00 0.00 0.00 0.00 0.00 0.00 0.00 0.00 0.00 0.00 0.00 0.00 0.00 0.00 0.00 0.00 0.00 0.00 0.00 0.00 0.00 0.00 0.00 0.00 0.00 0.00 0.00 0.00 0.00 0.00 0.00 0.00 0.00 0.00 0.00 0.00 0.00 0.00 0.00 0.00 0.00 0.00 0.00 0.00 0.00 0.00 0.00 0.00 0.00 0.00 0.00 0.00 0.00 0.00 0.00 0.00 0.00 0.00 0.00 0.00 0.00 0.00 0.00 0.00 0.00 0.00 0.00 0.00 0.00
0.00 0.00 0.00 0.00 0.00 0.00 0.00 0.00 0.00 0.00 0.00 0.00 0.00 0.00 0.00 0.00 0.00 0.00 0.00 0.00 0.00 0.00 0.00 0.00 0.00 0.00 0.00 0.00 0.00 0.00 0.00 0.00 0.00 0.00 0.00 0.00 0.00 0.00 0.00 0.00 0.00 0.00 0.00 0.00 0.00 0.00 0.00 0.00 0.00 0.00 0.00 0.00 0.00 0.00 0.00 0.00 0.00 0.00 0.00 0.00 0.00 0.00 0.00 0.00 0.00 0.00 0.00 0.00 0.00 0.00 0.00 0.00 0.00 0.00
0.00 0.00 0.00 0.00 0.00 0.00 0.00 0.00 0.00 0.00 0.00 0.00 0.00 0.00 0.00 0.00 0.00 0.00 0.00 0.00 0.00 0.00 0.00 0.00 0.00 0.00 0.00 0.00 0.00 0.00 0.00 0.00 0.00 0.00 0.00 0.00 0.00 0.00 0.00 0.00 0.00 0.00 0.00 0.00 0.00 0.00 0.00 0.00 0.00 0.00 0.00 0.00 0.00 0.00 0.00 0.00 0.00 0.00 0.00 0.00 0.00 0.00 0.00 0.00 0.00 0.00 0.00 0.00 0.00 0.00 0.00 0.00 0.00 0.00
0.00 0.00 0.00 0.00 0.00 0.00 0.00 0.00 0.00 0.00 0.00 0.00 0.00 0.00 0.00 0.00 0.00 0.00 0.00 0.00 0.00 0.00 0.00 0.00 0.00 0.00 0.00 0.00 0.00 0.00 0.00 0.01 0.00 0.00 0.00 0.00 0.00 0.00 0.00 0.00 0.00 0.00 0.00 0.00 0.00 0.00 0.00 0.00 0.00 0.00 0.00 0.00 0.00 0.00 0.00 0.00 0.00 0.00 0.00 0.00 0.00 0.00 0.00 0.00 0.00 0.00 0.00 0.00 0.00 0.00 0.00 0.00 0.00 0.00
0.00 0.00 0.00 0.00 0.00 0.00 0.00 0.00 0.00 0.00 0.00 0.00 0.00 0.00 0.00 0.00 0.00 0.00 0.00 0.00 0.00 0.00 0.00 0.00 0.00 0.00 0.00 0.00 0.00 0.00 0.00 0.01 0.00 0.00 0.00 0.00 0.00 0.00 0.00 0.00 0.00 0.00 0.00 0.00 0.00 0.00 0.00 0.00 0.00 0.00 0.00 0.00 0.00 0.00 0.00 0.00 0.00 0.00 0.00 0.00 0.00 0.00 0.00 0.00 0.00 0.00 0.00 0.00 0.00 0.00 0.00 0.00 0.00 0.00
0.00 0.00 0.00 0.00 0.00 0.00 0.00 0.00 0.00 0.00 0.00 0.00 0.00 0.00 0.00 0.00 0.00 0.00 0.00 0.00 0.00 0.00 0.00 0.00 0.00 0.00 0.00 0.00 0.00 0.00 0.00 0.00 0.00 0.00 0.00 0.00 0.00 0.01 0.02 0.03 0.02 0.00 0.00 0.00 0.00 0.00 0.00 0.00 0.00 0.00 0.00 0.00 0.00 0.00 0.00 0.00 0.00 0.00 0.00 0.00 0.00 0.00 0.00 0.00 0.00 0.00 0.00 0.00 0.00 0.00 0.00 0.00 0.00 0.00
0.00 0.00 0.00 0.00 0.00 0.00 0.00 0.00 0.00 0.00 0.00 0.00 0.00 0.00 0.00 0.00 0.00 0.00 0.00 0.00 0.00 0.00 0.00 0.00 0.00 0.00 0.00 0.00 0.00 0.00 0.00 0.00 0.00 0.00 0.00 0.02 0.07 0.04 0.03 0.01 0.00 0.00 0.00 0.00 0.00 0.00 0.00 0.00 0.00 0.00 0.00 0.00 0.00 0.00 0.00 0.00 0.00 0.00 0.00 0.00 0.00 0.00 0.00 0.00 0.00 0.00 0.00 0.00 0.00 0.00 0.00 0.00 0.00 0.00
0.00 0.00 0.00 0.00 0.00 0.00 0.00 0.00 0.00 0.00 0.00 0.00 0.00 0.00 0.00 0.00 0.00 0.00 0.00 0.00 0.00 0.00 0.00 0.00 0.00 0.00 0.00 0.00 0.00 0.00 0.00 0.00 0.01 0.04 0.04 0.01 0.01 0.01 0.00 0.00 0.00 0.00 0.00 0.00 0.00 0.00 0.00 0.00 0.00 0.00 0.00 0.00 0.00 0.00 0.00 0.00 0.00 0.00 0.00 0.00 0.00 0.00 0.00 0.00 0.00 0.00 0.00 0.00 0.00 0.00 0.00 0.00 0.00 0.00
0.00 0.00 0.00 0.00 0.00 0.00 0.00 0.00 0.00 0.00 0.00 0.00 0.00 0.00 0.00 0.00 0.00 0.00 0.00 0.00 0.00 0.00 0.00 0.00 0.00 0.00 0.00 0.00 0.00 0.00 0.00 0.02 0.02 0.01 0.02 0.01 0.01 0.00 0.01 0.02 0.01 0.00 0.00 0.00 0.00 0.00 0.00 0.00 0.00 0.00 0.00 0.00 0.00 0.00 0.00 0.00 0.00 0.00 0.00 0.00 0.00 0.00 0.00 0.00 0.00 0.00 0.00 0.00 0.00 0.00 0.00 0.00 0.00 0.00
0.00 0.00 0.00 0.00 0.00 0.00 0.00 0.00 0.00 0.00 0.00 0.00 0.00 0.00 0.01 0.02 0.00 0.00 0.00 0.00 0.00 0.00 0.00 0.00 0.00 0.00 0.00 0.00 0.00 0.00 0.00 0.00 0.00 0.00 0.00 0.01 0.01 0.01 0.29 0.08 0.05 0.00 0.00 0.00 0.00 0.00 0.00 0.00 0.00 0.00 0.00 0.00 0.00 0.00 0.00 0.00 0.00 0.00 0.00 0.00 0.00 0.00 0.00 0.00 0.00 0.00 0.00 0.00 0.00 0.00 0.00 0.00 0.00 0.00
0.00 0.00 0.00 0.00 0.00 0.00 0.00 0.00 0.00 0.00 0.00 0.00 0.00 0.10 0.49 0.49 0.18 0.01 0.13 0.00 0.00 0.00 0.00 0.00 0.00 0.00 0.00 0.00 0.00 0.00 0.01 0.01 0.01 0.01 0.01 0.01 0.06 0.12 0.13 0.02 0.00 0.00 0.00 0.00 0.00 0.00 0.00 0.00 0.00 0.00 0.00 0.00 0.00 0.00 0.00 0.00 0.00 0.00 0.00 0.00 0.00 0.00 0.00 0.00 0.00 0.00 0.00 0.00 0.00 0.00 0.00 0.00 0.00 0.00
0.00 0.00 0.00 0.00 0.00 0.00 0.00 0.00 0.00 0.01 0.05 0.11 0.30 0.62 0.59 0.59 0.46 0.08 0.01 0.00 0.00 0.00 0.00 0.00 0.00 0.00 0.00 0.01 0.01 0.01 0.02 0.01 0.02 0.02 0.02 0.04 0.08 0.02 0.04 0.00 0.00 0.00 0.00 0.00 0.00 0.00 0.00 0.00 0.00 0.00 0.00 0.00 0.00 0.00 0.00 0.00 0.00 0.00 0.00 0.00 0.00 0.00 0.00 0.00 0.00 0.00 0.00 0.00 0.00 0.00 0.00 0.00 0.00 0.00
0.00 0.00 0.00 0.00 0.00 0.01 0.02 0.03 0.05 0.15 0.21 0.32 0.20 0.56 0.60 0.19 0.18 0.01 0.00 0.00 0.00 0.00 0.01 0.02 0.02 0.01 0.01 0.01 0.01 0.08 0.08 0.04 0.02 0.00 0.01 0.02 0.01 0.06 0.07 0.05 0.00 0.00 0.00 0.00 0.00 0.00 0.00 0.00 0.00 0.00 0.00 0.00 0.00 0.00 0.00 0.00 0.00 0.00 0.00 0.00 0.00 0.00 0.00 0.00 0.00 0.00 0.00 0.00 0.00 0.00 0.00 0.00 0.00 0.00
0.00 0.00 0.00 0.00 0.00 0.00 0.00 0.00 0.00 0.00 0.00 0.01 0.05 0.15 0.02 0.03 0.32 0.07 0.01 0.01 0.01 0.01 0.01 0.01 0.01 0.01 0.01 0.02 0.06 0.07 0.04 0.01 0.02 0.02 0.02 0.02 0.11 0.27 0.10 0.00 0.00 0.00 0.00 0.00 0.00 0.00 0.00 0.00 0.00 0.00 0.00 0.00 0.00 0.00 0.00 0.00 0.00 0.00 0.00 0.00 0.00 0.00 0.00 0.00 0.00 0.00 0.00 0.00 0.00 0.00 0.00 0.00 0.00 0.00
0.00 0.00 0.00 0.00 0.00 0.00 0.00 0.00 0.00 0.00 0.00 0.00 0.00 0.01 0.08 0.17 0.07 0.04 0.03 0.03 0.03 0.03 0.02 0.01 0.00 0.00 0.00 0.00 0.00 0.00 0.01 0.02 0.03 0.03 0.03 0.07 0.21 0.17 0.02 0.00 0.00 0.00 0.00 0.00 0.00 0.00 0.00 0.00 0.00 0.00 0.00 0.00 0.00 0.00 0.00 0.00 0.00 0.00 0.00 0.00 0.00 0.00 0.00 0.00 0.00 0.00 0.00 0.00 0.00 0.00 0.00 0.00 0.00 0.00
0.00 0.00 0.00 0.00 0.00 0.00 0.00 0.00 0.00 0.00 0.00 0.10 0.30 0.17 0.01 0.01 0.01 0.07 0.02 0.03 0.04 0.04 0.03 0.01 0.00 0.00 0.00 0.00 0.00 0.00 0.00 0.01 0.01 0.02 0.02 0.06 0.03 0.00 0.01 0.00 0.00 0.00 0.00 0.00 0.00 0.01 0.03 0.00 0.00 0.00 0.00 0.00 0.00 0.00 0.00 0.00 0.00 0.00 0.00 0.00 0.00 0.00 0.00 0.00 0.00 0.00 0.00 0.00 0.00 0.00 0.00 0.00 0.00 0.00
0.00 0.00 0.00 0.00 0.00 0.00 0.00 0.01 0.00 0.00 0.00 0.01 0.06 0.23 0.02 0.00 0.01 0.01 0.01 0.01 0.02 0.02 0.01 0.00 0.00 0.00 0.00 0.00 0.00 0.00 0.00 0.00 0.01 0.05 0.06 0.00 0.00 0.00 0.00 0.00 0.00 0.00 0.00 0.00 0.02 0.00 0.00 0.00 0.00 0.00 0.00 0.01 0.00 0.00 0.00 0.00 0.00 0.00 0.00 0.00 0.00 0.00 0.00 0.00 0.00 0.00 0.00 0.00 0.00 0.00 0.00 0.00 0.00 0.00
0.00 0.00 0.00 0.00 0.00 0.00 0.00 0.00 0.00 0.00 0.00 0.00 0.03 0.86 0.67 0.05 0.00 0.01 0.01 0.01 0.01 0.00 0.00 0.00 0.00 0.00 0.00 0.00 0.00 0.00 0.00 0.02 0.04 0.03 0.03 0.00 0.00 0.00 0.00 0.00 0.01 0.00 0.00 0.00 0.00 0.01 0.00 0.00 0.00 0.01 0.00 0.00 0.00 0.00 0.00 0.00 0.00 0.00 0.00 0.00 0.00 0.00 0.00 0.00 0.00 0.00 0.00 0.00 0.00 0.00 0.00 0.00 0.00 0.00
0.00 0.00 0.00 0.07 0.05 0.03 0.01 0.01 0.14 0.29 0.33 0.33 0.28 0.16 0.27 0.10 0.05 0.02 0.06 0.15 0.03 0.01 0.00 0.00 0.00 0.00 0.00 0.00 0.00 0.00 0.00 0.01 0.00 0.00 0.00 0.00 0.00 0.00 0.00 0.00 0.00 0.00 0.00 0.00 0.00 0.00 0.00 0.00 0.00 0.00 0.00 0.00 0.00 0.00 0.00 0.00 0.00 0.00 0.00 0.00 0.00 0.00 0.00 0.00 0.00 0.00 0.00 0.00 0.00 0.00 0.00 0.00 0.00 0.00
0.00 0.00 0.00 0.00 0.00 0.20 0.33 0.17 0.20 0.34 0.45 0.46 0.98 1.55 0.61 0.25 0.03 0.02 0.02 0.01 0.01 0.01 0.01 0.02 0.00 0.02 0.00 0.00 0.00 0.00 0.00 0.00 0.00 0.00 0.00 0.00 0.00 0.00 0.00 0.00 0.00 0.00 0.00 0.00 0.00 0.00 0.00 0.00 0.00 0.00 0.00 0.00 0.00 0.00 0.00 0.00 0.00 0.00 0.00 0.00 0.00 0.00 0.00 0.00 0.00 0.00 0.00 0.00 0.00 0.00 0.00 0.00 0.00 0.00
MSLP
1020.35 1020.43 1020.47 1020.59 1020.55 1020.43 1020.35 1020.39 1020.35 1020.35 1020.39 1020.55 1020.67 1020.75 1021.27 1021.79 1022.79 1023.19 1022.99 1022.35 1021.99 1020.79 1020.35 1020.75 1019.47 1018.83 1018.79 1018.67 1018.39 1018.35 1018.31 1018.19 1018.11 1018.07 1018.03 1018.03 1017.95 1017.83 1017.75 1017.71 1017.63 1017.51 1017.39 1017.27 1017.19 1017.07 1016.95 1016.87 1016.75 1016.63 1016.55 1016.51 1016.39 1016.31 1016.23 1016.11 1015.95 1015.83 1015.75 1015.63 1015.55 1015.47 1015.39 1015.27 1015.19 1015.03 1014.95 1014.91 1014.95 1014.99 1014.99 1014.99 1015.11 1015.23
1020.31 1020.35 1020.43 1020.47 1020.55 1020.31 1020.39 1020.39 1020.23 1020.35 1020.39 1020.51 1020.63 1020.71 1020.79 1021.03 1021.99 1022.47 1023.11 1022.75 1021.67 1021.27 1020.39 1020.19 1020.07 1019.03 1018.79 1018.55 1018.47 1018.27 1018.23 1017.95 1017.99 1017.99 1017.95 1017.91 1017.79 1017.67 1017.63 1017.51 1017.43 1017.31 1017.19 1017.11 1016.99 1016.91 1016.79 1016.67 1016.59 1016.51 1016.43 1016.35 1016.27 1016.15 1015.99 1015.87 1015.79 1015.75 1015.63 1015.51 1015.35 1015.23 1015.11 1014.99 1014.87 1014.75 1014.59 1014.51 1014.55 1014.59 1014.55 1014.47 1014.47 1014.67
1020.35 1020.47 1020.51 1020.39 1020.51 1020.35 1020.47 1020.47 1020.39 1020.31 1020.39 1020.39 1020.47 1020.59 1020.75 1020.91 1021.11 1021.75 1022.27 1023.15 1021.51 1021.07 1020.99 1020.11 1019.51 1019.47 1018.99 1018.71 1018.67 1018.43 1018.19 1017.99 1017.91 1017.95 1017.87 1017.75 1017.63 1017.55 1017.39 1017.23 1017.11 1017.03 1016.99 1016.91 1016.79 1016.67 1016.59 1016.51 1016.43 1016.35 1016.31 1016.23 1016.11 1015.95 1015.87 1015.83 1015.79 1015.67 1015.51 1015.39 1015.27 1015.15 1015.03 1014.91 1014.79 1014.63 1014.47 1014.35 1014.27 1014.27 1014.19 1014.07 1014.03 1014.11
1020.31 1020.43 1020.55 1020.43 1020.43 1020.27 1020.31 1020.39 1020.47 1020.39 1020.27 1020.31 1020.51 1020.59 1020.71 1020.79 1020.91 1021.15 1021.79 1022.43 1022.07 1020.71 1020.59 1020.15 1019.63 1019.27 1019.23 1018.83 1018.91 1018.59 1018.31 1017.91 1017.87 1017.91 1017.79 1017.59 1017.43 1017.27 1017.19 1017.07 1016.99 1016.95 1016.91 1016.79 1016.67 1016.59 1016.47 1016.43 1016.35 1016.27 1016.19 1016.07 1015.99 1015.95 1015.95 1015.83 1015.71 1015.63 1015.51 1015.39 1015.31 1015.19 1015.03 1014.91 1014.71 1014.55 1014.39 1014.23 1014.11 1013.99 1013.87 1013.79 1013.71 1013.71
1020.35 1020.39 1020.51 1020.39 1020.27 1020.15 1020.39 1020.35 1020.31 1020.39 1020.39 1020.39 1020.51 1020.59 1020.71 1020.87 1020.95 1021.15 1021.59 1022.11 1021.87 1020.79 1020.15 1020.19 1019.83 1019.27 1019.19 1019.19 1018.71 1018.83 1018.51 1018.27 1017.91 1017.71 1017.59 1017.47 1017.43 1017.31 1017.31 1017.19 1017.03 1016.91 1016.79 1016.71 1016.59 1016.51 1016.43 1016.35 1016.27 1016.19 1016.07 1016.03 1016.11 1016.03 1015.87 1015.79 1015.75 1015.67 1015.55 1015.47 1015.39 1015.23 1015.03 1014.87 1014.67 1014.47 1014.31 1014.11 1013.95 1013.79 1013.63 1013.47 1013.39 1013.35
1020.31 1020.35 1020.51 1020.43 1020.23 1020.15 1020.39 1020.35 1020.39 1020.35 1020.35 1020.43 1020.51 1020.59 1020.67 1020.79 1020.91 1020.87 1021.35 1021.67 1021.91 1021.59 1020.39 1020.19 1019.63 1019.55 1019.11 1019.59 1018.71 1018.99 1018.87 1018.51 1018.11 1018.07 1017.79 1017.47 1017.39 1017.43 1017.35 1017.31 1017.11 1016.87 1016.75 1016.59 1016.47 1016.43 1016.35 1016.31 1016.19 1016.11 1016.11 1016.19 1016.03 1015.95 1015.95 1015.91 1015.83 1015.71 1015.63 1015.47 1015.31 1015.15 1014.99 1014.87 1014.71 1014.47 1014.27 1014.07 1013.87 1013.67 1013.47 1013.27 1013.11 1012.95
1020.27 1020.47 1020.47 1020.39 1020.23 1020.19 1020.43 1020.43 1020.39 1020.35 1020.43 1020.43 1020.59 1020.55 1020.55 1020.75 1020.75 1020.83 1020.91 1021.39 1021.75 1021.63 1021.03 1020.19 1020.19 1019.79 1019.47 1019.55 1019.19 1018.83 1018.75 1018.59 1018.47 1018.51 1018.23 1018.03 1017.71 1017.43 1017.35 1017.35 1017.11 1016.79 1016.63 1016.51 1016.43 1016.43 1016.35 1016.27 1016.19 1016.19 1016.31 1016.23 1016.15 1016.11 1016.15 1016.07 1015.95 1015.83 1015.71 1015.63 1015.51 1015.35 1015.15 1014.95 1014.71 1014.47 1014.31 1014.07 1013.87 1013.63 1013.43 1013.23 1012.99 1012.83
1020.27 1020.39 1020.51 1020.35 1020.23 1020.27 1020.47 1020.43 1020.43 1020.39 1020.43 1020.51 1020.55 1020.59 1020.55 1020.67 1020.67 1020.67 1020.83 1020.91 1021.31 1021.23 1021.43 1020.43 1020.31 1019.79 1019.83 1019.43 1019.07 1018.91 1018.75 1018.75 1018.63 1018.51 1018.27 1017.95 1017.95 1017.63 1017.31 1017.27 1017.15 1016.79 1016.59 1016.51 1016.51 1016.47 1016.35 1016.31 1016.31 1016.39 1016.43 1016.31 1016.31 1016.35 1016.31 1016.27 1016.19 1016.15 1016.07 1015.95 1015.75 1015.55 1015.31 1015.07 1014.79 1014.59 1014.39 1014.19 1013.99 1013.67 1013.43 1013.19 1012.99 1012.79
1020.03 1020.19 1020.31 1020.15 1020.19 1020.31 1020.59 1020.47 1020.43 1020.31 1020.43 1020.39 1020.51 1020.63 1020.55 1020.59 1020.55 1020.63 1020.71 1020.83 1020.95 1021.27 1021.35 1020.87 1020.03 1019.83 1019.75 1019.43 1019.23 1019.03 1019.27 1018.99 1018.79 1018.51 1018.51 1018.31 1018.15 1017.83 1017.43 1017.23 1016.95 1016.79 1016.59 1016.55 1016.55 1016.51 1016.43 1016.43 1016.51 1016.59 1016.47 1016.47 1016.51 1016.55 1016.51 1016.51 1016.47 1016.43 1016.31 1016.15 1015.91 1015.67 1015.43 1015.19 1014.95 1014.71 1014.47 1014.27 1014.07 1013.79 1013.43 1013.15 1012.91 1012.75
1019.67 1019.91 1019.99 1019.99 1020.07 1020.27 1020.51 1020.47 1020.31 1020.27 1020.35 1020.35 1020.47 1020.59 1020.51 1020.51 1020.55 1020.67 1020.67 1020.71 1020.91 1021.07 1021.03 1020.99 1020.67 1019.99 1020.11 1019.87 1019.59 1019.23 1019.19 1019.47 1019.39 1018.99 1018.55 1018.27 1018.07 1018.07 1017.79 1017.31 1017.03 1016.79 1016.75 1016.83 1016.67 1016.59 1016.51 1016.59 1016.63 1016.75 1016.67 1016.71 1016.75 1016.75 1016.75 1016.71 1016.67 1016.59 1016.43 1016.23 1015.99 1015.75 1015.47 1015.23 1015.03 1014.79 1014.59 1014.35 1014.11 1013.83 1013.55 1013.19 1012.91 1012.67
1019.39 1019.51 1019.59 1019.71 1019.83 1020.07 1020.11 1020.19 1020.19 1020.19 1020.27 1020.31 1020.35 1020.35 1020.39 1020.35 1020.59 1020.71 1020.71 1020.75 1020.91 1020.99 1021.03 1020.79 1020.63 1020.55 1019.99 1020.03 1020.07 1019.39 1019.15 1019.19 1019.27 1019.51 1019.27 1018.99 1018.43 1018.27 1018.19 1017.91 1017.15 1016.91 1016.91 1016.79 1016.75 1016.75 1016.75 1016.79 1016.79 1016.91 1016.87 1016.87 1016.87 1016.91 1016.91 1016.87 1016.83 1016.71 1016.51 1016.27 1015.99 1015.75 1015.55 1015.35 1015.15 1014.95 1014.71 1014.47 1014.19 1013.87 1013.55 1013.27 1012.95 1012.71
1019.07 1019.19 1019.27 1019.31 1019.43 1019.55 1019.63 1019.75 1019.75 1019.87 1020.11 1020.15 1020.35 1020.15 1020.23 1020.31 1020.55 1020.71 1020.67 1020.79 1020.91 1020.99 1021.03 1020.99 1020.79 1020.51 1020.35 1020.03 1019.79 1019.47 1019.35 1019.47 1019.31 1019.15 1019.43 1019.63 1019.07 1018.71 1018.31 1017.91 1017.83 1017.31 1017.19 1017.31 1017.03 1016.83 1016.71 1016.79 1016.79 1016.87 1016.95 1017.03 1017.07 1017.07 1017.03 1016.99 1016.91 1016.79 1016.55 1016.31 1016.03 1015.83 1015.67 1015.47 1015.23 1014.99 1014.79 1014.55 1014.31 1014.03 1013.67 1013.35 1013.07 1012.83
1018.79 1018.91 1018.95 1018.99 1018.99 1019.03 1019.07 1019.15 1019.27 1019.39 1019.51 1019.91 1020.27 1020.07 1020.11 1020.31 1020.51 1020.63 1020.71 1020.79 1020.91 1020.95 1021.03 1020.99 1020.71 1020.71 1020.51 1020.27 1020.19 1020.07 1019.95 1020.03 1020.03 1019.35 1019.23 1019.35 1018.87 1018.67 1018.51 1017.91 1017.35 1017.39 1017.63 1017.47 1017.35 1017.39 1017.19 1017.23 1017.19 1017.15 1017.23 1017.23 1017.19 1017.23 1017.15 1017.07 1016.95 1016.79 1016.55 1016.35 1016.11 1015.91 1015.75 1015.55 1015.31 1015.07 1014.87 1014.67 1014.43 1014.19 1013.83 1013.51 1013.19 1012.91
1018.59 1018.63 1018.63 1018.59 1018.55 1018.67 1018.75 1018.87 1019.03 1019.15 1019.23 1019.27 1019.43 1019.59 1019.83 1020.07 1020.39 1020.55 1020.71 1020.79 1020.83 1020.91 1021.11 1020.99 1020.83 1020.91 1020.67 1020.23 1020.07 1020.15 1019.75 1019.47 1019.31 1019.39 1019.35 1019.63 1019.07 1018.75 1018.55 1018.15 1017.67 1017.31 1017.43 1017.71 1017.91 1017.71 1017.19 1017.27 1017.39 1017.35 1017.51 1017.43 1017.35 1017.39 1017.31 1017.27 1017.07 1016.83 1016.59 1016.39 1016.19 1016.03 1015.87 1015.67 1015.39 1015.15 1014.95 1014.75 1014.51 1014.27 1013.99 1013.67 1013.35 1013.07
1018.43 1018.35 1018.35 1018.39 1018.35 1018.43 1018.55 1018.55 1018.63 1018.83 1018.95 1019.11 1019.19 1019.15 1019.19 1019.31 1019.75 1020.27 1020.59 1020.59 1020.55 1020.79 1020.87 1020.59 1020.67 1020.71 1020.51 1019.95 1019.71 1019.75 1019.51 1019.35 1019.35 1019.31 1019.23 1019.35 1019.31 1019.47 1019.63 1019.55 1018.15 1017.19 1017.39 1017.75 1017.99 1018.03 1017.43 1017.31 1017.67 1017.71 1017.63 1017.55 1017.55 1017.47 1017.47 1017.27 1017.03 1016.91 1016.67 1016.43 1016.27 1016.15 1015.95 1015.75 1015.47 1015.23 1014.99 1014.79 1014.59 1014.39 1014.11 1013.79 1013.47 1013.15
1018.07 1018.15 1018.19 1018.19 1018.23 1018.31 1018.35 1018.39 1018.47 1018.55 1018.63 1018.79 1018.91 1018.95 1019.03 1019.15 1019.19 1019.23 1019.67 1020.07 1020.39 1020.47 1020.59 1020.55 1020.35 1020.35 1020.23 1019.75 1019.47 1019.43 1019.35 1019.19 1019.11 1019.03 1019.15 1019.27 1019.39 1019.43 1019.55 1019.51 1019.43 1017.87 1017.23 1017.87 1018.11 1018.23 1017.67 1017.39 1017.63 1017.91 1017.83 1017.59 1017.59 1017.59 1017.47 1017.27 1017.15 1016.99 1016.75 1016.55 1016.43 1016.23 1016.03 1015.75 1015.51 1015.27 1015.07 1014.87 1014.67 1014.43 1014.19 1013.87 1013.51 1013.23
1017.67 1017.83 1018.03 1018.15 1018.07 1017.99 1017.99 1018.11 1018.19 1018.35 1018.39 1018.43 1018.55 1018.67 1018.83 1018.99 1019.07 1019.19 1019.19 1019.15 1019.35 1019.47 1019.99 1020.15 1019.99 1019.79 1019.59 1019.59 1019.19 1018.83 1018.71 1018.59 1019.03 1018.95 1019.19 1019.15 1019.11 1019.11 1019.23 1019.11 1018.71 1017.95 1017.35 1017.75 1018.15 1018.31 1018.03 1017.71 1017.87 1018.11 1017.91 1017.67 1017.55 1017.55 1017.43 1017.27 1017.19 1017.07 1016.83 1016.59 1016.43 1016.27 1016.03 1015.79 1015.55 1015.35 1015.15 1014.95 1014.71 1014.47 1014.27 1013.99 1013.63 1013.31
1017.23 1017.43 1017.71 1017.91 1017.99 1017.75 1017.75 1017.83 1017.95 1018.03 1018.15 1018.23 1018.35 1018.51 1018.63 1018.67 1018.55 1018.63 1018.71 1018.83 1018.91 1019.07 1019.31 1019.43 1019.59 1018.71 1018.75 1018.95 1018.39 1018.03 1018.11 1018.59 1018.91 1018.95 1019.03 1018.79 1018.95 1018.91 1018.79 1018.19 1018.07 1017.59 1017.23 1017.75 1018.07 1018.39 1018.15 1017.83 1017.83 1018.03 1017.99 1017.67 1017.59 1017.51 1017.43 1017.27 1017.23 1017.11 1016.87 1016.59 1016.43 1016.27 1016.07 1015.91 1015.71 1015.51 1015.31 1015.07 1014.83 1014.59 1014.35 1014.11 1013.75 1013.35
1016.67 1016.83 1017.03 1017.23 1017.39 1017.35 1017.43 1017.35 1017.43 1017.71 1017.83 1017.99 1018.15 1018.31 1018.35 1018.31 1018.27 1018.23 1018.27 1018.31 1018.35 1018.51 1018.59 1018.63 1018.47 1018.07 1017.91 1017.91 1017.67 1017.59 1017.71 1017.91 1017.99 1018.07 1018.23 1018.15 1018.23 1018.11 1017.79 1017.79 1017.59 1017.51 1017.19 1017.27 1017.75 1018.75 1018.11 1017.87 1017.83 1017.87 1017.83 1017.71 1017.63 1017.47 1017.31 1017.27 1017.23 1017.11 1016.91 1016.67 1016.43 1016.27 1016.15 1016.03 1015.83 1015.63 1015.39 1015.15 1014.91 1014.71 1014.43 1014.15 1013.79 1013.43
1016.15 1016.23 1016.43 1016.67 1016.83 1016.83 1016.87 1016.75 1016.87 1017.07 1017.27 1017.71 1017.99 1018.15 1018.03 1017.99 1017.87 1017.75 1017.35 1017.31 1017.39 1017.51 1017.67 1017.75 1017.67 1017.43 1017.27 1017.27 1017.31 1017.27 1017.35 1017.47 1017.51 1017.55 1017.59 1017.71 1017.99 1018.31 1018.55 1018.59 1017.91 1017.91 1017.27 1017.15 1017.59 1018.03 1018.11 1017.83 1017.91 1017.87 1017.67 1017.67 1017.67 1017.47 1017.35 1017.23 1017.19 1017.07 1016.95 1016.75 1016.55 1016.39 1016.23 1016.07 1015.91 1015.71 1015.51 1015.31 1015.07 1014.87 1014.59 1014.23 1013.83 1013.47
1015.67 1015.75 1015.79 1016.03 1016.23 1016.31 1016.39 1016.23 1016.43 1016.67 1016.99 1017.47 1017.75 1017.83 1017.87 1017.75 1017.71 1017.51 1016.91 1016.83 1016.91 1017.03 1017.11 1017.11 1017.03 1016.99 1016.95 1017.03 1016.99 1016.99 1017.03 1017.23 1017.31 1017.63 1018.11 1018.19 1017.99 1018.59 1018.91 1018.51 1018.19 1017.95 1017.47 1017.15 1017.19 1017.51 1018.03 1017.83 1017.83 1017.75 1017.67 1017.63 1017.59 1017.51 1017.39 1017.23 1017.15 1017.07 1016.99 1016.83 1016.67 1016.51 1016.31 1016.15 1016.03 1015.87 1015.67 1015.47 1015.27 1015.07 1014.79 1014.35 1013.91 1013.51
1015.31 1015.27 1015.27 1015.39 1015.71 1015.91 1015.87 1015.75 1016.03 1016.31 1016.83 1017.35 1017.43 1017.59 1017.79 1017.87 1017.83 1017.35 1016.71 1016.71 1016.63 1016.59 1016.67 1016.71 1016.71 1016.75 1016.71 1016.67 1016.71 1016.71 1016.71 1016.91 1017.15 1017.59 1018.27 1017.51 1017.63 1018.19 1018.27 1018.55 1018.07 1017.79 1017.59 1017.27 1016.91 1017.59 1018.03 1017.75 1017.79 1017.75 1017.71 1017.63 1017.47 1017.39 1017.31 1017.15 1017.07 1017.03 1017.03 1016.91 1016.75 1016.63 1016.51 1016.31 1016.15 1016.03 1015.87 1015.63 1015.43 1015.23 1014.99 1014.55 1014.03 1013.63
1014.91 1014.95 1014.87 1014.99 1015.11 1015.31 1015.31 1015.43 1015.71 1016.07 1016.51 1016.91 1017.07 1017.23 1017.59 1017.83 1017.75 1016.99 1016.51 1016.79 1016.83 1016.75 1016.79 1016.63 1016.59 1016.59 1016.39 1016.35 1016.43 1016.31 1016.31 1016.51 1016.79 1016.87 1016.91 1016.91 1017.51 1017.91 1017.91 1017.95 1018.07 1018.27 1017.79 1017.03 1016.71 1017.63 1018.07 1018.03 1017.79 1017.95 1017.79 1017.83 1017.47 1017.35 1017.23 1016.99 1016.99 1016.99 1016.99 1016.91 1016.75 1016.63 1016.55 1016.47 1016.31 1016.11 1015.95 1015.79 1015.59 1015.39 1015.19 1014.83 1014.31 1013.99
1014.71 1014.63 1014.67 1014.63 1014.79 1014.95 1015.03 1015.15 1015.39 1015.79 1016.19 1016.47 1016.63 1016.87 1017.39 1017.59 1017.39 1016.19 1016.43 1016.39 1016.43 1016.47 1016.47 1016.35 1016.23 1016.23 1016.03 1016.07 1016.11 1016.15 1016.19 1016.23 1016.35 1016.51 1016.55 1016.63 1016.87 1017.31 1017.43 1017.51 1017.67 1018.03 1017.55 1016.75 1016.63 1017.39 1017.99 1017.95 1017.87 1017.99 1018.07 1018.07 1017.67 1017.39 1017.27 1017.11 1017.03 1017.11 1017.11 1017.03 1016.87 1016.75 1016.71 1016.63 1016.47 1016.23 1015.99 1015.83 1015.75 1015.59 1015.43 1015.15 1014.79 1014.43
1014.39 1014.39 1014.31 1014.19 1014.23 1014.51 1014.71 1014.87 1015.11 1015.63 1016.03 1016.11 1016.23 1016.43 1016.75 1016.51 1015.91 1015.79 1016.31 1016.15 1016.03 1016.23 1016.19 1016.19 1016.15 1016.15 1016.11 1016.11 1016.07 1016.07 1016.03 1016.11 1016.15 1016.19 1016.19 1016.19 1016.23 1016.59 1016.99 1017.23 1017.39 1017.35 1016.87 1016.47 1016.43 1016.91 1017.71 1017.87 1017.95 1017.99 1018.11 1018.15 1018.11 1017.95 1017.39 1017.23 1016.91 1016.99 1017.03 1016.95 1016.87 1016.79 1016.83 1016.79 1016.67 1016.43 1016.15 1015.87 1015.79 1015.75 1015.63 1015.47 1015.15 1014.87
1013.75 1013.67 1013.71 1013.75 1013.71 1013.95 1014.27 1014.51 1014.79 1015.23 1015.71 1015.91 1016.07 1015.91 1015.67 1015.51 1015.67 1015.95 1015.87 1015.91 1016.03 1016.11 1016.11 1016.19 1016.31 1016.31 1016.31 1016.27 1016.19 1016.07 1015.99 1015.91 1015.87 1015.83 1015.83 1015.79 1015.79 1015.75 1015.83 1016.19 1016.75 1017.15 1016.83 1016.31 1016.35 1016.67 1017.27 1017.83 1017.67 1017.99 1018.19 1018.31 1018.27 1018.39 1018.07 1017.35 1016.99 1016.91 1016.95 1016.79 1016.79 1016.83 1016.95 1017.03 1016.87 1016.63 1016.43 1016.19 1015.91 1015.79 1015.83 1015.67 1015.43 1015.11
1012.95 1012.83 1012.99 1012.99 1013.15 1013.55 1013.83 1014.11 1014.35 1014.67 1015.07 1015.59 1015.59 1015.27 1015.31 1015.35 1015.47 1015.75 1015.87 1015.87 1015.95 1016.07 1016.11 1016.27 1016.39 1016.31 1016.27 1016.35 1016.23 1016.07 1015.91 1015.67 1015.55 1015.55 1015.47 1015.47 1015.51 1015.59 1015.59 1015.51 1015.55 1015.79 1015.83 1016.03 1016.15 1016.35 1016.67 1017.23 1017.39 1017.55 1017.79 1018.07 1018.19 1018.35 1018.31 1017.95 1017.23 1016.87 1016.71 1016.67 1016.71 1016.75 1016.87 1017.03 1017.03 1016.87 1016.63 1016.47 1016.31 1015.99 1015.75 1015.63 1015.51 1015.31
1012.11 1012.31 1012.39 1012.51 1012.71 1013.07 1013.35 1013.63 1013.95 1014.15 1014.55 1014.83 1014.83 1015.07 1015.15 1015.39 1015.67 1015.79 1015.79 1015.83 1015.83 1015.91 1016.07 1016.27 1016.27 1016.19 1016.03 1015.99 1015.99 1015.83 1015.55 1015.39 1015.35 1015.43 1015.51 1015.55 1015.51 1015.63 1015.71 1015.63 1015.63 1015.55 1015.63 1015.87 1016.07 1016.19 1016.31 1016.71 1017.11 1017.27 1017.35 1017.67 1017.95 1017.99 1017.87 1017.79 1017.63 1017.47 1017.23 1016.83 1016.75 1016.83 1016.91 1017.03 1017.07 1016.99 1016.75 1016.63 1016.47 1016.27 1016.07 1015.79 1015.47 1015.35
1011.27 1011.35 1011.59 1011.95 1012.31 1012.59 1012.95 1013.27 1013.55 1013.95 1014.35 1014.59 1014.75 1014.87 1015.07 1015.43 1015.59 1015.55 1015.55 1015.55 1015.63 1015.95 1016.03 1015.99 1015.87 1015.71 1015.55 1015.39 1015.11 1014.91 1014.99 1015.19 1015.35 1015.63 1015.79 1015.79 1015.79 1015.75 1015.75 1015.79 1015.75 1015.71 1015.71 1015.79 1015.91 1016.03 1016.15 1016.31 1016.71 1017.07 1017.35 1017.51 1017.59 1017.71 1017.79 1017.59 1017.55 1017.35 1017.27 1017.15 1016.87 1016.83 1016.91 1017.03 1017.07 1017.07 1016.91 1016.71 1016.55 1016.35 1016.31 1016.23 1015.99 1015.71
1010.59 1010.91 1011.31 1011.63 1011.95 1012.35 1012.71 1013.11 1013.47 1013.71 1013.83 1014.11 1014.47 1014.87 1015.23 1015.27 1015.15 1015.11 1015.15 1015.23 1015.51 1015.59 1015.47 1015.51 1015.47 1015.15 1014.95 1014.91 1014.71 1014.75 1014.95 1015.35 1015.59 1015.75 1015.99 1016.11 1016.23 1016.11 1016.11 1016.27 1016.27 1015.99 1015.79 1015.71 1015.79 1015.91 1016.07 1016.15 1016.35 1016.71 1017.07 1017.31 1017.35 1017.39 1017.51 1017.47 1017.31 1017.15 1017.27 1017.31 1017.39 1016.95 1016.99 1017.07 1017.03 1016.99 1016.91 1016.83 1016.63 1016.43 1016.31 1016.23 1016.15 1015.95
1010.79 1010.99 1011.31 1011.55 1011.79 1012.03 1012.27 1012.59 1012.87 1013.27 1013.55 1013.99 1014.31 1014.51 1014.51 1014.51 1014.47 1014.43 1014.59 1014.67 1014.83 1014.83 1014.87 1014.75 1014.63 1014.47 1014.39 1014.43 1014.75 1014.95 1015.07 1015.31 1015.43 1015.43 1015.59 1015.87 1016.11 1016.11 1016.11 1016.27 1016.59 1016.51 1016.11 1015.75 1015.67 1015.71 1015.83 1015.99 1016.15 1016.27 1016.71 1017.07 1017.27 1017.19 1017.23 1017.31 1017.07 1017.07 1017.07 1017.31 1017.35 1017.23 1016.99 1017.07 1017.07 1016.99 1016.87 1016.79 1016.67 1016.47 1016.31 1016.23 1016.19 1016.07
1010.43 1010.83 1011.15 1011.43 1011.67 1011.99 1012.35 1012.67 1012.99 1013.23 1013.39 1013.51 1013.67 1013.79 1013.75 1013.71 1013.63 1013.71 1013.79 1013.99 1014.15 1014.07 1013.99 1013.99 1014.07 1014.23 1014.31 1014.59 1014.55 1014.67 1014.87 1014.99 1015.11 1015.15 1015.35 1015.55 1015.91 1015.87 1015.95 1016.43 1016.59 1016.35 1016.23 1015.91 1015.75 1015.75 1015.71 1015.79 1015.91 1016.07 1016.11 1016.39 1016.63 1017.03 1017.35 1017.23 1017.03 1017.03 1017.07 1017.07 1017.19 1017.23 1017.23 1017.11 1017.03 1016.87 1016.79 1016.75 1016.59 1016.35 1016.27 1016.27 1016.31 1016.27
1010.75 1011.15 1011.47 1011.63 1011.87 1012.07 1012.35 1012.67 1012.91 1013.11 1013.27 1013.35 1013.19 1013.03 1012.99 1012.95 1013.11 1013.39 1013.71 1013.91 1013.75 1013.59 1013.67 1013.87 1013.95 1013.95 1014.03 1014.19 1014.23 1014.43 1014.75 1014.91 1015.03 1015.07 1015.27 1015.31 1015.43 1015.67 1015.63 1015.75 1015.87 1016.19 1016.35 1016.35 1016.15 1016.07 1015.95 1015.83 1015.71 1015.91 1016.19 1016.35 1016.31 1016.43 1016.75 1016.87 1016.83 1016.99 1016.99 1016.91 1017.07 1017.07 1016.95 1017.03 1017.03 1016.87 1016.83 1016.59 1016.55 1016.43 1016.07 1016.15 1016.35 1016.43
1010.63 1010.99 1011.23 1011.27 1011.47 1011.71 1012.03 1012.27 1012.47 1012.67 1012.75 1012.87 1012.87 1012.51 1012.15 1012.15 1012.35 1012.59 1012.75 1012.79 1012.75 1012.75 1012.95 1013.15 1013.51 1013.63 1013.71 1013.87 1013.99 1014.27 1014.51 1014.71 1014.87 1014.91 1014.91 1015.15 1015.11 1015.47 1015.71 1015.95 1016.27 1016.27 1016.19 1016.19 1016.31 1016.35 1016.39 1016.27 1016.03 1016.03 1016.15 1016.31 1016.43 1016.39 1016.27 1016.39 1016.51 1016.63 1016.75 1016.87 1017.03 1016.99 1016.87 1016.95 1016.95 1017.03 1016.99 1016.91 1016.83 1016.27 1015.99 1015.99 1016.27 1016.35
1010.39 1010.59 1010.87 1010.91 1010.99 1011.11 1011.31 1011.51 1011.63 1011.79 1012.03 1012.11 1012.03 1011.91 1011.71 1011.51 1011.35 1011.35 1011.59 1011.59 1011.63 1011.91 1012.31 1012.63 1012.75 1012.87 1013.15 1013.43 1013.63 1013.95 1014.15 1014.43 1014.67 1014.87 1014.83 1014.75 1014.99 1015.23 1015.43 1015.87 1016.11 1016.11 1016.11 1016.23 1016.31 1016.39 1016.43 1016.43 1016.35 1016.31 1016.31 1016.39 1016.39 1016.31 1016.19 1016.07 1016.23 1016.35 1016.55 1016.71 1016.79 1016.87 1016.75 1016.79 1016.87 1016.91 1016.91 1016.87 1016.87 1016.39 1016.11 1015.99 1016.03 1016.27
1009.63 1009.83 1010.11 1010.27 1010.35 1010.47 1010.83 1010.79 1010.87 1011.19 1011.43 1011.59 1011.59 1011.59 1011.59 1011.07 1010.39 1010.55 1010.87 1010.87 1011.03 1011.19 1011.59 1011.91 1012.23 1012.63 1012.95 1013.11 1013.27 1013.43 1013.67 1013.99 1014.35 1014.63 1014.87 1014.87 1014.99 1015.07 1015.07 1015.15 1015.47 1015.83 1015.87 1015.87 1015.91 1016.23 1016.43 1016.47 1016.43 1016.47 1016.47 1016.55 1016.51 1016.31 1015.95 1015.91 1015.87 1015.99 1016.31 1016.39 1016.47 1016.63 1016.67 1016.75 1016.87 1016.87 1016.75 1016.59 1016.75 1016.55 1016.15 1016.11 1016.15 1016.19
1008.91 1009.15 1009.31 1009.39 1009.43 1009.79 1010.11 1010.31 1010.63 1010.83 1010.91 1011.11 1011.23 1011.15 1010.95 1010.55 1009.95 1010.19 1010.51 1010.35 1010.59 1010.99 1011.23 1011.55 1011.99 1012.19 1012.39 1012.55 1012.79 1012.99 1013.31 1013.71 1014.19 1014.47 1014.59 1014.63 1014.67 1014.63 1014.87 1015.15 1015.39 1015.55 1015.71 1015.59 1015.63 1016.03 1016.35 1016.51 1016.59 1016.31 1016.27 1016.43 1016.35 1016.35 1015.95 1015.99 1015.95 1015.91 1016.03 1016.11 1016.23 1016.35 1016.43 1016.63 1016.67 1016.47 1016.47 1016.67 1016.55 1016.51 1016.31 1016.43 1016.31 1016.23
1008.15 1008.15 1008.51 1008.67 1008.87 1009.15 1009.39 1009.67 1009.99 1010.31 1010.47 1010.47 1010.39 1010.23 1009.95 1009.59 1009.27 1009.59 1009.99 1010.27 1010.47 1010.55 1010.87 1011.23 1011.47 1011.79 1012.03 1012.27 1012.51 1012.83 1013.03 1013.27 1013.59 1014.03 1014.19 1014.43 1014.55 1014.51 1014.47 1014.79 1015.03 1015.35 1015.43 1015.47 1015.67 1015.87 1016.15 1016.35 1016.59 1016.43 1016.23 1016.27 1016.31 1016.27 1016.15 1015.91 1015.83 1015.59 1015.67 1015.87 1016.03 1016.11 1016.43 1016.51 1016.51 1016.43 1016.19 1016.43 1016.35 1016.39 1016.51 1016.35 1016.15 1016.15
1007.43 1007.51 1007.79 1007.99 1008.19 1008.43 1008.79 1009.03 1009.31 1009.51 1009.47 1009.47 1009.47 1009.39 1009.35 1009.19 1008.99 1009.35 1010.11 1010.23 1010.11 1010.11 1010.27 1010.71 1011.15 1011.47 1011.75 1011.95 1012.23 1012.67 1012.91 1013.27 1013.67 1013.91 1014.11 1014.19 1014.43 1014.67 1014.67 1014.51 1014.83 1015.23 1015.43 1015.51 1015.63 1015.83 1016.11 1016.27 1016.23 1016.19 1016.03 1015.99 1016.07 1015.67 1015.39 1015.47 1015.27 1015.07 1015.51 1015.63 1015.71 1016.07 1016.27 1016.31 1016.31 1016.31 1016.31 1016.07 1016.07 1016.55 1016.47 1016.35 1016.15 1016.07
1006.91 1006.91 1006.99 1007.23 1007.51 1007.79 1008.03 1008.39 1008.67 1008.75 1008.95 1008.87 1008.83 1008.75 1008.87 1008.99 1008.91 1009.11 1009.51 1009.71 1009.83 1009.91 1010.11 1010.43 1010.75 1011.07 1011.27 1011.39 1011.71 1011.99 1012.39 1012.79 1013.15 1013.31 1013.51 1013.67 1013.87 1014.23 1014.39 1014.27 1014.51 1014.99 1015.43 1015.47 1015.63 1015.79 1015.95 1015.83 1015.71 1015.63 1015.51 1015.15 1014.95 1015.15 1015.23 1015.23 1015.27 1015.51 1015.47 1015.63 1015.67 1015.67 1015.79 1016.23 1016.19 1016.15 1016.03 1016.23 1016.47 1016.11 1015.83 1016.03 1015.79 1015.95
1006.67 1006.83 1006.75 1006.75 1007.07 1007.35 1007.67 1007.91 1008.15 1008.39 1008.59 1008.59 1008.63 1008.67 1008.71 1008.71 1008.79 1008.79 1008.95 1009.31 1009.67 1009.95 1010.15 1010.27 1010.39 1010.59 1010.83 1011.15 1011.47 1011.79 1012.27 1012.59 1012.75 1012.87 1013.23 1013.67 1013.91 1013.95 1013.91 1014.19 1014.55 1014.91 1015.15 1015.35 1015.39 1015.55 1015.55 1014.95 1014.43 1014.43 1014.87 1015.23 1015.35 1015.27 1015.27 1015.35 1015.27 1014.99 1014.99 1015.19 1015.59 1015.79 1015.91 1015.99 1015.99 1016.07 1015.87 1016.27 1016.31 1016.15 1015.95 1015.79 1015.95 1016.03
1005.91 1006.07 1006.03 1006.27 1006.55 1006.67 1007.03 1007.47 1007.67 1007.83 1007.99 1008.11 1008.27 1008.39 1008.55 1008.71 1008.63 1008.63 1008.95 1009.19 1009.43 1009.67 1009.87 1009.91 1009.87 1009.99 1010.27 1010.55 1010.95 1011.39 1011.71 1012.11 1012.31 1012.55 1012.83 1013.23 1013.59 1013.75 1013.87 1014.11 1014.35 1014.63 1014.91 1014.95 1015.07 1014.83 1014.31 1014.31 1014.55 1014.71 1014.91 1015.19 1015.39 1015.47 1015.55 1015.35 1015.31 1015.03 1015.11 1015.31 1015.55 1015.79 1015.95 1016.03 1016.11 1016.11 1016.07 1016.03 1015.99 1015.91 1015.95 1016.43 1016.75 1015.83
1005.23 1005.39 1005.59 1005.75 1005.99 1006.35 1006.75 1006.87 1006.91 1007.03 1007.23 1007.39 1007.83 1008.47 1009.07 1009.03 1008.75 1008.71 1008.75 1008.95 1009.19 1009.39 1009.55 1009.59 1009.63 1009.87 1010.15 1010.51 1010.87 1011.23 1011.55 1011.87 1012.07 1012.31 1012.55 1012.87 1013.11 1013.39 1013.67 1013.79 1013.83 1014.03 1014.23 1014.15 1014.15 1014.19 1014.43 1014.59 1014.79 1014.99 1015.07 1015.15 1015.15 1015.19 1015.27 1015.07 1015.07 1015.07 1015.11 1015.23 1015.39 1015.71 1015.95 1016.03 1016.07 1016.07 1016.03 1015.91 1015.79 1015.71 1015.67 1015.59 1015.47 1015.07
1004.63 1004.91 1005.03 1005.23 1005.63 1005.99 1006.23 1006.31 1006.39 1006.43 1006.51 1006.59 1006.63 1007.11 1007.55 1007.87 1008.07 1007.99 1008.07 1008.31 1008.51 1008.71 1008.91 1009.19 1009.47 1009.75 1010.11 1010.39 1010.75 1011.15 1011.35 1011.59 1011.79 1012.11 1012.43 1012.63 1012.79 1012.87 1013.03 1013.23 1013.47 1013.71 1013.91 1014.07 1014.19 1014.23 1014.39 1014.59 1014.83 1014.91 1015.15 1015.11 1015.03 1015.23 1015.15 1015.03 1015.03 1014.87 1014.95 1015.07 1015.31 1015.47 1015.51 1015.87 1015.99 1016.03 1015.99 1015.87 1015.75 1015.71 1015.71 1015.75 1015.59 1015.51
1004.19 1004.39 1004.63 1004.95 1005.31 1005.63 1005.83 1005.91 1006.03 1006.11 1006.11 1006.19 1006.63 1007.15 1007.15 1007.03 1007.31 1007.47 1007.39 1007.39 1007.75 1008.11 1008.47 1008.83 1009.27 1009.67 1009.95 1010.27 1010.63 1011.03 1011.27 1011.47 1011.71 1011.91 1012.11 1012.35 1012.55 1012.67 1012.83 1013.03 1013.35 1013.63 1013.79 1013.91 1014.07 1014.15 1014.39 1014.59 1014.91 1015.03 1014.95 1014.91 1014.99 1014.95 1014.79 1014.83 1014.83 1014.91 1014.95 1014.95 1014.87 1014.95 1015.27 1015.59 1015.63 1015.59 1015.59 1015.43 1015.43 1015.51 1015.55 1015.59 1015.59 1015.55
Thickness
5787 5787 5787 5787 5787 5789 5790 5790 5791 5792 5792 5791 5790 5789 5787 5782 5776 5774 5775 5778 5784 5792 5795 5796 5801 5807 5807 5806 5807 5808 5808 5808 5808 5808 5808 5807 5807 5806 5805 5805 5804 5804 5803 5803 5803 5803 5803 5802 5801 5801 5799 5798 5797 5795 5795 5794 5793 5792 5791 5790 5788 5786 5784 5783 5781 5780 5778 5775 5772 5768 5765 5762 5758 5753
5788 5788 5788 5788 5789 5790 5790 5790 5792 5792 5793 5793 5792 5791 5791 5789 5783 5777 5775 5777 5784 5791 5794 5797 5800 5805 5807 5807 5808 5809 5809 5809 5809 5809 5808 5809 5808 5807 5807 5806 5806 5805 5805 5805 5805 5805 5805 5804 5803 5803 5801 5800 5799 5799 5798 5797 5796 5794 5793 5792 5790 5789 5788 5786 5785 5783 5781 5779 5775 5772 5769 5766 5763 5759
5788 5788 5788 5788 5789 5790 5791 5791 5791 5793 5793 5793 5793 5793 5791 5791 5788 5785 5778 5776 5784 5791 5793 5797 5802 5803 5806 5807 5808 5809 5810 5810 5810 5809 5810 5810 5810 5808 5808 5809 5808 5807 5807 5807 5807 5807 5806 5806 5805 5804 5804 5803 5802 5801 5800 5798 5797 5796 5795 5794 5792 5790 5789 5788 5786 5785 5783 5781 5778 5775 5772 5770 5767 5763
5789 5788 5788 5789 5790 5791 5791 5791 5791 5792 5793 5794 5793 5793 5792 5791 5790 5789 5783 5778 5784 5793 5795 5798 5802 5804 5805 5807 5808 5809 5810 5811 5810 5810 5810 5810 5810 5810 5810 5810 5809 5808 5807 5808 5808 5808 5808 5807 5806 5806 5806 5805 5803 5801 5800 5799 5798 5797 5796 5795 5793 5791 5790 5789 5787 5786 5785 5783 5781 5778 5775 5773 5769 5767
5790 5789 5788 5789 5791 5791 5791 5791 5792 5792 5793 5793 5793 5792 5792 5792 5790 5790 5787 5781 5783 5792 5797 5798 5801 5805 5805 5805 5808 5809 5809 5811 5811 5811 5812 5812 5811 5811 5810 5810 5809 5808 5808 5808 5808 5808 5808 5808 5808 5808 5807 5806 5803 5802 5801 5800 5799 5798 5796 5795 5793 5792 5790 5788 5788 5786 5785 5784 5782 5780 5778 5776 5773 5771
5790 5789 5789 5789 5791 5792 5791 5791 5792 5792 5792 5792 5792 5792 5792 5791 5791 5791 5789 5785 5783 5787 5794 5798 5799 5803 5804 5803 5807 5808 5807 5808 5810 5811 5811 5812 5812 5811 5810 5809 5809 5809 5809 5810 5810 5810 5809 5809 5809 5809 5807 5806 5805 5803 5802 5801 5799 5797 5797 5795 5794 5791 5790 5789 5787 5786 5785 5785 5783 5781 5780 5778 5776 5774
5789 5789 5789 5789 5791 5791 5790 5790 5791 5791 5792 5792 5791 5792 5792 5791 5791 5792 5790 5788 5785 5785 5791 5796 5797 5800 5802 5802 5805 5807 5807 5808 5808 5808 5810 5811 5811 5811 5810 5810 5809 5810 5810 5811 5810 5810 5810 5810 5809 5809 5807 5806 5805 5804 5802 5800 5799 5797 5796 5794 5793 5791 5790 5788 5788 5786 5785 5785 5784 5782 5781 5779 5777 5775
5790 5789 5788 5789 5791 5790 5789 5790 5791 5791 5791 5791 5790 5790 5791 5791 5791 5792 5791 5789 5788 5786 5788 5793 5797 5798 5800 5802 5804 5805 5806 5807 5808 5807 5808 5809 5810 5811 5810 5810 5810 5811 5811 5811 5810 5810 5810 5810 5809 5808 5807 5806 5805 5803 5801 5799 5797 5796 5794 5792 5791 5790 5789 5787 5787 5787 5785 5784 5783 5783 5781 5780 5778 5776
5790 5789 5789 5790 5791 5789 5788 5788 5790 5790 5790 5790 5790 5790 5790 5790 5790 5791 5790 5790 5790 5787 5786 5790 5796 5798 5798 5800 5803 5804 5803 5803 5805 5806 5807 5808 5809 5810 5811 5810 5810 5811 5811 5810 5810 5810 5810 5808 5808 5807 5806 5804 5803 5801 5799 5797 5795 5794 5792 5791 5790 5789 5788 5787 5787 5787 5785 5784 5783 5782 5781 5780 5779 5777
5792 5791 5791 5792 5791 5789 5788 5788 5789 5790 5790 5789 5789 5789 5789 5790 5789 5789 5789 5789 5789 5787 5787 5788 5792 5795 5796 5797 5799 5802 5802 5800 5800 5801 5804 5806 5808 5808 5809 5810 5810 5811 5810 5810 5809 5809 5808 5807 5806 5805 5804 5802 5801 5799 5797 5795 5794 5793 5791 5790 5789 5789 5788 5788 5787 5787 5785 5784 5782 5782 5781 5780 5779 5778
5794 5794 5793 5793 5793 5791 5790 5790 5790 5790 5789 5789 5789 5789 5789 5789 5788 5787 5788 5788 5787 5786 5787 5788 5789 5792 5794 5795 5796 5799 5801 5800 5799 5799 5798 5800 5803 5805 5806 5807 5808 5810 5810 5809 5808 5807 5807 5805 5804 5803 5802 5800 5799 5797 5795 5794 5792 5791 5790 5789 5789 5788 5788 5787 5787 5786 5785 5783 5782 5781 5780 5780 5779 5778
5795 5795 5795 5795 5794 5794 5793 5793 5792 5791 5790 5788 5788 5788 5789 5788 5787 5786 5786 5786 5786 5785 5784 5786 5788 5789 5791 5793 5794 5796 5798 5796 5796 5798 5796 5795 5798 5802 5804 5806 5807 5808 5808 5807 5806 5805 5804 5803 5803 5802 5800 5799 5797 5795 5793 5792 5790 5790 5789 5789 5788 5788 5787 5786 5786 5785 5784 5782 5781 5780 5780 5779 5778 5777
5797 5796 5796 5797 5796 5796 5796 5796 5795 5794 5793 5790 5788 5788 5789 5787 5786 5785 5784 5784 5784 5783 5783 5784 5785 5786 5787 5790 5791 5791 5794 5793 5794 5798 5797 5795 5797 5799 5801 5806 5807 5806 5805 5805 5803 5802 5802 5802 5801 5800 5797 5795 5794 5793 5791 5790 5789 5789 5789 5788 5788 5788 5787 5786 5785 5784 5783 5782 5780 5780 5779 5778 5777 5777
5796 5797 5797 5797 5798 5798 5797 5797 5796 5795 5794 5793 5792 5790 5790 5788 5786 5784 5782 5782 5782 5781 5781 5781 5783 5783 5785 5788 5790 5789 5793 5795 5795 5796 5795 5794 5796 5797 5797 5801 5806 5806 5804 5801 5800 5799 5800 5800 5798 5796 5795 5793 5792 5791 5790 5789 5788 5788 5788 5788 5788 5787 5785 5784 5783 5782 5782 5780 5780 5778 5777 5777 5776 5776
5796 5797 5797 5798 5798 5798 5797 5797 5797 5796 5794 5794 5793 5792 5792 5791 5788 5785 5782 5782 5782 5781 5780 5781 5782 5782 5783 5788 5791 5790 5793 5795 5795 5796 5795 5794 5793 5793 5791 5792 5798 5803 5803 5799 5796 5796 5797 5798 5796 5794 5793 5792 5790 5789 5788 5788 5788 5788 5788 5787 5787 5785 5785 5783 5782 5781 5780 5779 5778 5777 5776 5776 5775 5775
5797 5797 5797 5798 5797 5797 5797 5797 5796 5796 5795 5795 5793 5792 5792 5792 5791 5789 5786 5784 5783 5781 5780 5781 5782 5782 5784 5787 5791 5792 5793 5795 5795 5795 5794 5793 5792 5791 5789 5788 5792 5799 5802 5798 5793 5792 5795 5795 5793 5791 5790 5790 5788 5788 5788 5788 5787 5787 5786 5786 5785 5784 5783 5782 5781 5780 5779 5778 5777 5776 5775 5775 5775 5775
5798 5798 5797 5796 5797 5798 5798 5797 5797 5796 5795 5795 5794 5793 5792 5791 5791 5791 5790 5788 5786 5785 5783 5781 5782 5784 5785 5787 5791 5795 5796 5795 5794 5793 5793 5793 5792 5791 5790 5790 5793 5798 5800 5796 5791 5789 5791 5793 5790 5787 5787 5788 5786 5786 5786 5786 5785 5784 5785 5785 5784 5783 5782 5781 5780 5779 5778 5777 5776 5776 5775 5775 5775 5776
5800 5799 5798 5797 5797 5798 5798 5798 5797 5796 5795 5795 5794 5792 5791 5791 5792 5792 5790 5790 5789 5787 5786 5784 5785 5789 5790 5790 5794 5798 5798 5796 5794 5792 5792 5792 5792 5791 5792 5794 5796 5798 5798 5796 5791 5787 5788 5790 5788 5786 5786 5785 5785 5784 5784 5784 5783 5783 5783 5783 5783 5782 5781 5780 5779 5777 5776 5776 5775 5775 5775 5774 5775 5775
5802 5801 5801 5800 5799 5799 5800 5800 5799 5798 5797 5795 5794 5793 5793 5792 5793 5793 5793 5793 5791 5790 5790 5789 5790 5793 5794 5795 5797 5799 5798 5797 5797 5797 5796 5795 5795 5794 5794 5795 5795 5796 5797 5797 5791 5785 5785 5788 5786 5784 5784 5784 5783 5783 5783 5782 5782 5781 5781 5781 5781 5780 5779 5778 5777 5776 5775 5775 5773 5774 5773 5774 5774 5774
5803 5803 5803 5802 5802 5802 5802 5802 5801 5800 5798 5796 5794 5793 5793 5794 5794 5795 5797 5796 5795 5794 5794 5793 5794 5796 5796 5797 5798 5799 5798 5798 5799 5799 5797 5796 5794 5792 5789 5789 5791 5793 5795 5796 5792 5787 5785 5785 5784 5783 5783 5782 5781 5781 5781 5780 5779 5779 5779 5778 5778 5778 5777 5776 5776 5775 5774 5773 5772 5772 5772 5773 5774 5774
5803 5804 5805 5804 5803 5803 5804 5804 5803 5801 5798 5796 5794 5793 5792 5793 5793 5796 5798 5798 5797 5796 5796 5796 5797 5797 5797 5798 5798 5799 5799 5798 5797 5795 5792 5792 5792 5788 5785 5785 5788 5790 5791 5793 5792 5787 5784 5783 5782 5782 5781 5780 5779 5779 5779 5779 5778 5777 5776 5775 5775 5775 5774 5774 5773 5772 5771 5771 5770 5769 5770 5771 5773 5773
5803 5804 5805 5805 5804 5804 5804 5804 5803 5800 5797 5795 5793 5792 5791 5790 5790 5794 5797 5797 5797 5798 5798 5798 5798 5798 5798 5799 5799 5800 5799 5798 5797 5793 5791 5791 5791 5787 5784 5785 5786 5787 5789 5790 5790 5785 5781 5780 5780 5779 5778 5778 5778 5777 5777 5777 5777 5775 5773 5774 5773 5773 5772 5771 5769 5769 5768 5768 5768 5767 5767 5768 5770 5771
5802 5803 5804 5805 5804 5804 5804 5803 5801 5799 5796 5794 5793 5791 5789 5787 5789 5793 5795 5795 5795 5796 5797 5798 5798 5798 5799 5799 5799 5799 5799 5797 5796 5795 5794 5794 5791 5786 5786 5786 5783 5782 5784 5789 5789 5782 5777 5777 5776 5775 5774 5774 5775 5776 5775 5775 5775 5773 5771 5771 5771 5770 5769 5767 5766 5766 5766 5766 5765 5765 5764 5765 5766 5767
5800 5801 5803 5804 5804 5803 5802 5801 5799 5796 5794 5793 5793 5791 5788 5786 5790 5794 5794 5794 5796 5795 5796 5798 5798 5798 5799 5798 5798 5797 5797 5796 5796 5795 5795 5795 5792 5789 5787 5785 5783 5781 5784 5788 5787 5780 5774 5773 5772 5771 5770 5769 5770 5772 5772 5773 5773 5771 5769 5768 5769 5767 5766 5764 5763 5762 5763 5763 5762 5761 5761 5761 5762 5762
5800 5802 5802 5803 5803 5801 5799 5798 5796 5794 5792 5792 5792 5791 5790 5791 5793 5793 5792 5794 5796 5795 5796 5797 5797 5796 5796 5795 5795 5795 5795 5795 5795 5795 5795 5796 5795 5792 5789 5786 5783 5782 5784 5787 5786 5780 5773 5770 5769 5768 5765 5764 5764 5765 5767 5770 5770 5769 5768 5767 5766 5765 5763 5761 5760 5759 5759 5759 5759 5758 5758 5757 5757 5758
5802 5803 5803 5804 5803 5801 5799 5797 5795 5792 5791 5790 5791 5792 5794 5794 5794 5792 5792 5793 5794 5794 5795 5794 5793 5793 5792 5791 5792 5793 5794 5794 5796 5796 5795 5796 5795 5794 5792 5790 5786 5783 5784 5786 5784 5779 5773 5769 5767 5765 5762 5761 5760 5759 5760 5764 5767 5767 5766 5765 5764 5763 5760 5758 5757 5756 5756 5756 5755 5755 5754 5754 5754 5754
5805 5806 5806 5805 5803 5800 5798 5796 5794 5792 5791 5790 5791 5792 5793 5793 5791 5790 5791 5792 5792 5792 5792 5791 5789 5789 5789 5789 5790 5791 5792 5794 5795 5795 5794 5794 5793 5792 5791 5790 5789 5787 5786 5783 5781 5778 5774 5769 5766 5765 5762 5759 5757 5755 5755 5757 5760 5762 5763 5763 5762 5760 5758 5756 5754 5753 5753 5752 5751 5751 5751 5751 5751 5750
5808 5808 5808 5806 5803 5800 5797 5796 5794 5793 5791 5790 5791 5791 5790 5788 5788 5788 5789 5790 5790 5789 5789 5788 5788 5788 5788 5789 5790 5791 5792 5793 5793 5792 5790 5789 5788 5788 5787 5786 5786 5785 5784 5781 5778 5776 5773 5768 5765 5763 5761 5758 5756 5755 5754 5754 5755 5756 5757 5758 5758 5757 5755 5753 5751 5750 5750 5749 5749 5748 5747 5747 5747 5747
5811 5811 5809 5805 5803 5800 5797 5796 5793 5792 5791 5789 5789 5787 5786 5784 5786 5787 5788 5789 5788 5787 5787 5786 5787 5788 5790 5790 5792 5793 5793 5791 5789 5787 5785 5783 5783 5783 5782 5782 5782 5782 5780 5778 5776 5773 5771 5768 5765 5761 5759 5757 5755 5753 5753 5753 5753 5753 5753 5752 5752 5752 5751 5749 5748 5747 5746 5746 5746 5745 5744 5742 5742 5742
5812 5810 5807 5803 5800 5798 5797 5795 5792 5791 5789 5787 5785 5784 5783 5783 5785 5787 5788 5787 5787 5786 5787 5788 5789 5790 5791 5791 5792 5792 5789 5787 5785 5783 5780 5778 5778 5778 5778 5777 5777 5777 5777 5775 5773 5771 5770 5768 5765 5760 5757 5754 5753 5753 5752 5751 5752 5751 5750 5747 5747 5747 5748 5746 5745 5745 5744 5743 5742 5742 5741 5739 5738 5738
5807 5805 5802 5799 5798 5796 5795 5793 5791 5790 5787 5785 5783 5783 5783 5785 5787 5788 5788 5788 5788 5789 5790 5791 5791 5792 5791 5790 5789 5787 5785 5784 5782 5781 5779 5776 5775 5775 5775 5773 5771 5772 5772 5772 5771 5770 5768 5766 5763 5761 5757 5753 5751 5750 5749 5749 5749 5749 5747 5745 5743 5743 5743 5742 5741 5741 5741 5740 5739 5739 5738 5736 5735 5733
5800 5797 5796 5795 5794 5793 5791 5789 5787 5786 5784 5783 5783 5784 5786 5788 5789 5788 5788 5788 5789 5791 5792 5792 5791 5790 5789 5787 5786 5785 5783 5782 5780 5779 5777 5775 5773 5774 5773 5770 5768 5768 5767 5767 5767 5766 5765 5764 5761 5759 5757 5754 5752 5749 5746 5746 5746 5745 5744 5743 5740 5739 5738 5738 5737 5738 5737 5737 5736 5736 5735 5733 5731 5730
5791 5790 5790 5790 5790 5789 5787 5786 5784 5783 5782 5782 5783 5786 5789 5791 5791 5790 5789 5788 5790 5792 5793 5791 5789 5788 5787 5786 5785 5783 5780 5779 5778 5776 5774 5773 5772 5772 5771 5770 5768 5765 5762 5761 5759 5758 5758 5757 5757 5756 5753 5751 5750 5747 5745 5744 5744 5742 5741 5739 5737 5736 5735 5734 5733 5733 5733 5732 5731 5732 5732 5730 5727 5726
5788 5789 5789 5788 5789 5788 5787 5785 5784 5783 5781 5781 5782 5787 5791 5794 5794 5794 5793 5794 5796 5796 5793 5791 5789 5788 5787 5785 5784 5780 5777 5776 5774 5772 5771 5772 5771 5770 5768 5766 5763 5760 5758 5755 5753 5751 5750 5749 5750 5750 5748 5746 5745 5744 5744 5743 5742 5740 5738 5735 5732 5732 5731 5730 5729 5728 5727 5726 5726 5727 5728 5727 5724 5722
5790 5791 5790 5790 5790 5789 5787 5787 5787 5785 5784 5782 5784 5787 5790 5795 5800 5801 5800 5801 5801 5798 5794 5792 5790 5788 5786 5783 5781 5778 5775 5773 5771 5769 5769 5769 5768 5767 5765 5762 5757 5755 5754 5751 5749 5746 5745 5744 5743 5742 5741 5740 5739 5739 5740 5740 5738 5736 5734 5732 5729 5728 5727 5726 5724 5722 5722 5721 5720 5721 5723 5722 5720 5718
5794 5794 5793 5793 5793 5790 5789 5789 5787 5786 5784 5782 5783 5784 5787 5794 5802 5802 5799 5798 5798 5796 5793 5791 5788 5785 5782 5780 5779 5778 5775 5773 5769 5767 5766 5765 5763 5763 5762 5759 5755 5753 5750 5748 5746 5742 5739 5738 5737 5736 5734 5733 5732 5733 5735 5736 5735 5733 5730 5728 5726 5724 5722 5721 5719 5718 5718 5717 5715 5716 5716 5715 5714 5712
5797 5797 5797 5797 5797 5794 5790 5788 5786 5783 5781 5780 5779 5782 5786 5794 5800 5798 5793 5792 5793 5791 5790 5788 5786 5783 5782 5780 5779 5777 5775 5772 5768 5765 5763 5761 5760 5759 5757 5755 5752 5749 5746 5744 5742 5738 5734 5731 5730 5730 5730 5728 5727 5728 5729 5729 5729 5729 5727 5725 5723 5721 5718 5715 5714 5714 5714 5712 5710 5710 5709 5708 5707 5706
5800 5800 5800 5799 5798 5795 5791 5787 5784 5781 5780 5780 5781 5785 5790 5795 5799 5796 5791 5789 5789 5789 5787 5785 5783 5782 5780 5779 5777 5773 5771 5769 5766 5763 5761 5758 5755 5753 5753 5752 5749 5746 5743 5741 5738 5734 5730 5727 5723 5724 5725 5724 5722 5723 5725 5725 5725 5726 5724 5722 5719 5716 5714 5711 5710 5710 5709 5708 5706 5705 5703 5703 5703 5702
5801 5802 5801 5800 5798 5795 5791 5787 5783 5782 5782 5783 5786 5789 5791 5793 5795 5793 5788 5785 5787 5788 5786 5784 5782 5779 5779 5778 5776 5771 5769 5766 5763 5760 5758 5755 5751 5748 5748 5748 5746 5741 5738 5736 5733 5730 5726 5723 5721 5721 5722 5722 5723 5723 5723 5723 5723 5722 5721 5718 5716 5713 5710 5707 5706 5705 5705 5704 5702 5700 5699 5699 5698 5697
5800 5801 5801 5800 5798 5794 5790 5787 5784 5783 5783 5784 5785 5788 5789 5789 5790 5790 5787 5785 5784 5784 5782 5780 5780 5778 5777 5777 5775 5771 5768 5765 5762 5759 5756 5753 5749 5746 5745 5745 5742 5737 5733 5731 5729 5726 5722 5721 5723 5723 5723 5722 5723 5722 5721 5720 5718 5717 5716 5715 5713 5710 5707 5704 5702 5701 5700 5699 5697 5695 5696 5695 5693 5692
5797 5798 5799 5799 5796 5793 5790 5787 5784 5783 5782 5781 5782 5783 5783 5784 5785 5786 5785 5783 5781 5779 5777 5777 5778 5779 5777 5776 5773 5770 5766 5762 5760 5757 5753 5749 5746 5744 5743 5741 5738 5733 5730 5727 5725 5723 5722 5724 5725 5724 5721 5718 5717 5716 5714 5713 5712 5713 5713 5710 5708 5706 5703 5700 5698 5697 5696 5693 5690 5689 5689 5686 5684 5684
5796 5797 5799 5798 5796 5793 5790 5786 5784 5783 5782 5780 5778 5775 5773 5774 5778 5780 5779 5778 5777 5775 5774 5776 5778 5778 5777 5775 5771 5767 5763 5759 5756 5754 5751 5747 5744 5741 5739 5737 5734 5731 5728 5725 5724 5723 5723 5723 5721 5718 5715 5713 5711 5710 5709 5707 5707 5708 5707 5704 5702 5699 5697 5695 5693 5692 5690 5688 5686 5685 5684 5680 5679 5680
5796 5796 5798 5797 5795 5792 5789 5786 5786 5785 5784 5781 5777 5771 5768 5770 5774 5775 5774 5773 5773 5773 5773 5774 5776 5775 5773 5770 5766 5763 5758 5755 5753 5750 5747 5744 5741 5739 5736 5735 5733 5730 5727 5725 5723 5721 5719 5716 5714 5711 5709 5708 5706 5705 5704 5704 5703 5703 5701 5699 5696 5693 5691 5689 5687 5685 5684 5683 5682 5680 5678 5677 5676 5676
5795 5795 5796 5796 5794 5790 5787 5786 5785 5784 5784 5782 5776 5770 5768 5771 5773 5773 5773 5773 5772 5772 5773 5773 5772 5770 5767 5764 5760 5757 5754 5751 5750 5747 5744 5742 5739 5737 5734 5732 5729 5726 5724 5721 5718 5716 5713 5710 5707 5705 5704 5703 5701 5701 5701 5700 5699 5698 5696 5694 5691 5689 5686 5683 5681 5679 5677 5676 5675 5674 5672 5670 5668 5667
5793 5793 5794 5793 5790 5787 5785 5784 5784 5782 5781 5779 5774 5769 5769 5771 5771 5771 5773 5772 5770 5769 5769 5768 5766 5763 5761 5758 5755 5751 5748 5746 5744 5742 5740 5738 5735 5733 5730 5728 5724 5721 5718 5716 5714 5711 5708 5705 5702 5700 5698 5697 5696 5696 5695 5695 5694 5693 5691 5689 5687 5685 5681 5678 5675 5673 5672 5670 5669 5667 5665 5663 5660 5659